When you browse on this site, cookies collect data to enhance your experience and personalize the content and advertising you see.
Visit our Privacy Policy to learn more. By continuing to use the site, you agree to this use of cookies and data.
  • In Romania
  • List of Countries
  • For 7 days
  • Water Temperature
  • Satellite Maps
  • Weather Map
  • Weather Widgets
  • user-avatar
    Login

    Hourly Weather Apsheronsk

    Today, 21 March, Thursday

    Time Temperature Precipitation Wind Pressure Humidity
    00:00 +8°C° 0 mm 1 mps 747 mmHg 86%
    01:00 +8°C° 0 mm 1 mps 747 mmHg 87%
    02:00 +8°C° 0 mm 1 mps 747 mmHg 88%
    03:00 +7°C° 0 mm 1 mps 747 mmHg 88%
    04:00 +6°C° 0 mm 1 mps 747 mmHg 89%
    05:00 +6°C° 0 mm 1 mps 747 mmHg 90%
    06:00 +6°C° 0 mm 1 mps 748 mmHg 91%
    07:00 +7°C° 0 mm 1 mps 748 mmHg 84%
    08:00 +9°C° 0 mm 1 mps 748 mmHg 77%
    09:00 +10°C° 0 mm 1 mps 748 mmHg 71%
    10:00 +12°C° 0 mm 2 mps 748 mmHg 65%
    11:00 +13°C° 0 mm 2 mps 748 mmHg 59%
    12:00 +13°C° 0 mm 3 mps 748 mmHg 54%
    13:00 +13°C° 0 mm 3 mps 748 mmHg 54%
    14:00 +13°C° 0 mm 3 mps 748 mmHg 55%
    15:00 +13°C° 0 mm 4 mps 748 mmHg 56%
    16:00 +12°C° 0 mm 3 mps 748 mmHg 61%
    17:00 +11°C° 0 mm 3 mps 748 mmHg 66%
    18:00 +10°C° 0 mm 3 mps 748 mmHg 71%
    19:00 +9°C° 0 mm 3 mps 748 mmHg 76%
    20:00 +8°C° 0 mm 2 mps 749 mmHg 81%
    21:00 +7°C° 0 mm 2 mps 749 mmHg 87%
    22:00 +7°C° 0 mm 2 mps 749 mmHg 88%
    23:00 +7°C° 0 mm 2 mps 749 mmHg 89%

    Tomorrow, 22 March, Friday

    Time Temperature Precipitation Wind Pressure Humidity
    00:00 +6°C° 0 mm 2 mps 749 mmHg 91%
    01:00 +6°C° 0.1 mm 2 mps 749 mmHg 90%
    02:00 +6°C° 0.1 mm 2 mps 749 mmHg 89%
    03:00 +6°C° 0.1 mm 2 mps 749 mmHg 88%
    04:00 +6°C° 0.1 mm 2 mps 749 mmHg 88%
    05:00 +6°C° 0.1 mm 2 mps 749 mmHg 88%
    06:00 +6°C° 0.1 mm 2 mps 749 mmHg 88%
    07:00 +6°C° 0 mm 2 mps 749 mmHg 80%
    08:00 +7°C° 0 mm 3 mps 749 mmHg 73%
    09:00 +8°C° 0 mm 3 mps 749 mmHg 65%
    10:00 +8°C° 0 mm 4 mps 749 mmHg 60%
    11:00 +10°C° 0 mm 4 mps 749 mmHg 56%
    12:00 +10°C° 0 mm 5 mps 749 mmHg 51%
    13:00 +10°C° 0 mm 5 mps 748 mmHg 51%
    14:00 +10°C° 0 mm 5 mps 748 mmHg 51%
    15:00 +10°C° 0 mm 5 mps 748 mmHg 51%
    16:00 +10°C° 0 mm 4 mps 748 mmHg 56%
    17:00 +8°C° 0 mm 4 mps 747 mmHg 60%
    18:00 +8°C° 0 mm 3 mps 747 mmHg 65%
    19:00 +8°C° 0 mm 3 mps 747 mmHg 67%
    20:00 +6°C° 0 mm 4 mps 747 mmHg 69%
    21:00 +5°C° 0 mm 4 mps 747 mmHg 71%
    22:00 +5°C° 0 mm 4 mps 747 mmHg 71%
    23:00 +5°C° 0 mm 4 mps 746 mmHg 72%

    Day after tomorrow, 23 March, Saturday

    Time Temperature Precipitation Wind Pressure Humidity
    00:00 +5°C° 0 mm 5 mps 746 mmHg 72%
    01:00 +5°C° 0 mm 5 mps 745 mmHg 71%
    02:00 +4°C° 0 mm 6 mps 744 mmHg 69%
    03:00 +4°C° 0 mm 7 mps 744 mmHg 68%
    04:00 +4°C° 0.1 mm 7 mps 743 mmHg 68%
    05:00 +4°C° 0.1 mm 7 mps 743 mmHg 68%
    06:00 +4°C° 0.1 mm 7 mps 743 mmHg 67%
    07:00 +4°C° 1.1 mm 6 mps 743 mmHg 70%
    08:00 +4°C° 1.1 mm 6 mps 742 mmHg 73%
    09:00 +5°C° 1.1 mm 5 mps 742 mmHg 76%
    10:00 +5°C° 2.8 mm 4 mps 742 mmHg 79%
    11:00 +4°C° 2.8 mm 4 mps 742 mmHg 82%
    12:00 +3°C° 2.8 mm 3 mps 742 mmHg 85%
    13:00 +3°C° 1.7 mm 3 mps 742 mmHg 82%
    14:00 +3°C° 1.7 mm 3 mps 742 mmHg 80%
    15:00 +4°C° 1.7 mm 2 mps 742 mmHg 78%
    16:00 +4°C° 0.3 mm 2 mps 742 mmHg 79%
    17:00 +5°C° 0.3 mm 1 mps 742 mmHg 81%
    18:00 +4°C° 0.3 mm 1 mps 743 mmHg 82%
    19:00 +4°C° 0.3 mm 1 mps 743 mmHg 84%
    20:00 +3°C° 0.3 mm 1 mps 743 mmHg 85%
    21:00 +3°C° 0.3 mm 1 mps 744 mmHg 86%
    22:00 +2°C° 0.1 mm 1 mps 744 mmHg 87%
    23:00 +2°C° 0.1 mm 1 mps 744 mmHg 87%

    24 March, Sunday

    Time Temperature Precipitation Wind Pressure Humidity
    00:00 +1°C° 0.1 mm 1 mps 744 mmHg 88%
    01:00 0°C° 0 mm 1 mps 744 mmHg 88%
    02:00 0°C° 0 mm 1 mps 744 mmHg 88%
    03:00 -1°C° 0 mm 1 mps 745 mmHg 89%
    04:00 -1°C° 0 mm 1 mps 745 mmHg 88%
    05:00 -2°C° 0 mm 1 mps 745 mmHg 87%
    06:00 -4°C° 0 mm 2 mps 745 mmHg 86%
    07:00 0°C° 0 mm 1 mps 745 mmHg 81%
    08:00 +2°C° 0 mm 1 mps 745 mmHg 77%
    09:00 +4°C° 0 mm 1 mps 745 mmHg 72%
    10:00 +5°C° 0 mm 1 mps 745 mmHg 68%
    11:00 +6°C° 0 mm 1 mps 745 mmHg 64%
    12:00 +7°C° 0 mm 1 mps 745 mmHg 60%
    13:00 +6°C° 0.1 mm 2 mps 745 mmHg 60%
    14:00 +7°C° 0.1 mm 2 mps 745 mmHg 59%
    15:00 +7°C° 0.1 mm 2 mps 745 mmHg 59%
    16:00 +6°C° 0.1 mm 2 mps 745 mmHg 65%
    17:00 +5°C° 0.1 mm 2 mps 745 mmHg 71%
    18:00 +5°C° 0.1 mm 1 mps 745 mmHg 77%
    19:00 +4°C° 0 mm 1 mps 746 mmHg 81%
    20:00 +3°C° 0 mm 1 mps 746 mmHg 84%
    21:00 +1°C° 0 mm 2 mps 746 mmHg 88%
    22:00 -1°C° 0 mm 2 mps 746 mmHg 88%
    23:00 -1°C° 0 mm 2 mps 746 mmHg 89%

    25 March, Monday

    Time Temperature Precipitation Wind Pressure Humidity
    00:00 +1°C° 0 mm 1 mps 746 mmHg 89%
    01:00 -1°C° 0 mm 2 mps 746 mmHg 89%
    02:00 -2°C° 0 mm 2 mps 746 mmHg 90%
    03:00 -2°C° 0 mm 2 mps 746 mmHg 90%
    04:00 -2°C° 0 mm 2 mps 746 mmHg 90%
    05:00 -2°C° 0 mm 2 mps 746 mmHg 89%
    06:00 -2°C° 0 mm 2 mps 746 mmHg 89%
    07:00 +1°C° 0 mm 2 mps 746 mmHg 83%
    08:00 +3°C° 0 mm 2 mps 746 mmHg 78%
    09:00 +5°C° 0 mm 2 mps 746 mmHg 72%
    10:00 +6°C° 0 mm 2 mps 746 mmHg 70%
    11:00 +7°C° 0 mm 2 mps 746 mmHg 68%
    12:00 +8°C° 0 mm 3 mps 746 mmHg 66%
    13:00 +8°C° 0 mm 3 mps 746 mmHg 68%
    14:00 +8°C° 0 mm 3 mps 745 mmHg 69%
    15:00 +8°C° 0 mm 3 mps 745 mmHg 70%
    16:00 +7°C° 0 mm 2 mps 745 mmHg 74%
    17:00 +6°C° 0 mm 2 mps 745 mmHg 78%
    18:00 +7°C° 0 mm 1 mps 745 mmHg 82%
    19:00 +5°C° 0 mm 1 mps 745 mmHg 85%
    20:00 +4°C° 0 mm 1 mps 745 mmHg 89%
    21:00 +3°C° 0 mm 1 mps 745 mmHg 92%
    22:00 +3°C° 0 mm 1 mps 745 mmHg 91%
    23:00 +3°C° 0 mm 1 mps 745 mmHg 91%

    26 March, Tuesday

    Time Temperature Precipitation Wind Pressure Humidity
    00:00 +2°C° 0 mm 1 mps 744 mmHg 91%
    01:00 +2°C° 0 mm 1 mps 744 mmHg 90%
    02:00 +2°C° 0 mm 1 mps 744 mmHg 89%
    03:00 +2°C° 0 mm 1 mps 744 mmHg 89%
    04:00 +2°C° 0 mm 1 mps 743 mmHg 88%
    05:00 +2°C° 0 mm 1 mps 743 mmHg 87%
    06:00 +1°C° 0 mm 1 mps 743 mmHg 86%
    07:00 +4°C° 0 mm 1 mps 743 mmHg 79%
    08:00 +6°C° 0 mm 1 mps 743 mmHg 72%
    09:00 +7°C° 0 mm 0 mps 743 mmHg 65%
    10:00 +9°C° 0 mm 0 mps 742 mmHg 60%
    11:00 +12°C° 0 mm 1 mps 742 mmHg 56%
    12:00 +14°C° 0 mm 1 mps 742 mmHg 51%
    13:00 +14°C° 0 mm 1 mps 741 mmHg 50%
    14:00 +15°C° 0 mm 1 mps 741 mmHg 49%
    15:00 +15°C° 0 mm 1 mps 740 mmHg 49%
    16:00 +14°C° 0 mm 1 mps 740 mmHg 55%
    17:00 +12°C° 0 mm 1 mps 740 mmHg 61%
    18:00 +11°C° 0 mm 1 mps 740 mmHg 67%
    19:00 +10°C° 0 mm 1 mps 740 mmHg 70%
    20:00 +8°C° 0 mm 1 mps 740 mmHg 74%
    21:00 +7°C° 0 mm 1 mps 740 mmHg 77%
    22:00 +7°C° 0 mm 1 mps 740 mmHg 79%
    23:00 +6°C° 0 mm 1 mps 740 mmHg 80%
    Show more